4XCBD SCTN-SCPC

Flight info

Callsign 4XCBD
Flight time 1h 34m
Altitude 14000
Route MON
Aircraft CTX/L-V/N

Departure

Time 2026-05-05 15:52
Airport Nuevo Chaitén Airport (SCTN)

Arrival

Time 2026-05-05 17:26
Airport Pucón Airport (SCPC)
Time Latitude Longitude Altitude Speed Heading
2026-05-05 15:47 -42.77625 -72.83193 30 ft 0 kts 201°
2026-05-05 15:50 -42.77641 -72.83200 30 ft 0 kts 195°
2026-05-05 15:51 -42.77642 -72.83201 30 ft 7 kts 198°
2026-05-05 15:51 -42.78017 -72.83408 32 ft 105 kts 201°
2026-05-05 15:52 -42.78830 -72.83636 546 ft 122 kts 176°
2026-05-05 15:52 -42.79540 -72.83047 1401 ft 109 kts 137°
2026-05-05 15:52 -42.79762 -72.82038 1990 ft 127 kts 90°
2026-05-05 15:52 -42.79797 -72.80850 2567 ft 127 kts 97°
2026-05-05 15:53 -42.79924 -72.79673 3189 ft 121 kts 99°
2026-05-05 15:53 -42.79774 -72.78508 3476 ft 149 kts 54°
2026-05-05 15:53 -42.78976 -72.77114 2799 ft 216 kts 54°
2026-05-05 15:53 -42.78166 -72.75411 3107 ft 212 kts 57°
2026-05-05 15:54 -42.77063 -72.74226 3357 ft 207 kts 15°
2026-05-05 15:54 -42.75682 -72.74403 3649 ft 201 kts 336°
2026-05-05 15:54 -42.74707 -72.75682 3917 ft 199 kts 292°
2026-05-05 15:54 -42.74733 -72.77512 4200 ft 198 kts 252°
2026-05-05 15:55 -42.75361 -72.79157 4458 ft 199 kts 225°
2026-05-05 15:55 -42.76622 -72.79903 4737 ft 203 kts 188°
2026-05-05 15:55 -42.77952 -72.79346 5001 ft 207 kts 142°
2026-05-05 15:55 -42.78808 -72.77778 5304 ft 206 kts 123°
2026-05-05 15:56 -42.79642 -72.76216 5624 ft 203 kts 142°
2026-05-05 15:56 -42.80774 -72.75068 5940 ft 203 kts 139°
2026-05-05 15:56 -42.81737 -72.73658 6255 ft 203 kts 132°
2026-05-05 15:56 -42.82648 -72.72181 6567 ft 204 kts 131°
2026-05-05 15:57 -42.83532 -72.70700 6874 ft 204 kts 130°
2026-05-05 15:57 -42.84295 -72.69059 7188 ft 206 kts 120°
2026-05-05 15:57 -42.84749 -72.67221 7475 ft 208 kts 94°
2026-05-05 15:57 -42.84815 -72.65208 7600 ft 217 kts 92°
2026-05-05 15:58 -42.84849 -72.63101 7696 ft 227 kts 91°
2026-05-05 15:58 -42.84869 -72.60908 7698 ft 234 kts 91°
2026-05-05 15:58 -42.84884 -72.58672 7708 ft 238 kts 91°
2026-05-05 15:58 -42.84895 -72.56399 7715 ft 241 kts 91°
2026-05-05 15:59 -42.85272 -72.54199 7844 ft 237 kts 112°
2026-05-05 15:59 -42.85866 -72.52161 8201 ft 227 kts 113°
2026-05-05 15:59 -42.86459 -72.50207 8537 ft 219 kts 114°
2026-05-05 15:59 -42.87042 -72.48316 8836 ft 214 kts 114°
2026-05-05 16:00 -42.87617 -72.46465 9184 ft 211 kts 114°
2026-05-05 16:00 -42.88056 -72.44604 9535 ft 210 kts 92°
2026-05-05 16:00 -42.87590 -72.42773 9884 ft 207 kts 56°
2026-05-05 16:00 -42.86763 -72.41199 10343 ft 200 kts 52°
2026-05-05 16:01 -42.85933 -72.39730 10865 ft 191 kts 51°
2026-05-05 16:01 -42.85146 -72.38369 11382 ft 173 kts 50°
2026-05-05 16:01 -42.84218 -72.37590 11914 ft 150 kts 356°
2026-05-05 16:01 -42.83290 -72.37963 12443 ft 132 kts 335°
2026-05-05 16:02 -42.82505 -72.38465 12926 ft 119 kts 318°
2026-05-05 16:02 -42.82223 -72.39456 13163 ft 121 kts 278°
2026-05-05 16:02 -42.82054 -72.40699 13271 ft 147 kts 281°
2026-05-05 16:02 -42.81837 -72.42160 13325 ft 171 kts 281°
2026-05-05 16:03 -42.81590 -72.43844 13369 ft 190 kts 281°
2026-05-05 16:03 -42.81331 -72.45687 13395 ft 205 kts 280°
2026-05-05 16:03 -42.81063 -72.47638 13397 ft 212 kts 280°
2026-05-05 16:03 -42.80795 -72.49627 13399 ft 215 kts 280°
2026-05-05 16:04 -42.80527 -72.51644 13411 ft 217 kts 280°
2026-05-05 16:04 -42.80261 -72.53675 13396 ft 219 kts 280°
2026-05-05 16:04 -42.79995 -72.55719 13393 ft 219 kts 280°
2026-05-05 16:04 -42.79730 -72.57761 13395 ft 219 kts 280°
2026-05-05 16:05 -42.79465 -72.59803 13396 ft 219 kts 280°
2026-05-05 16:05 -42.79200 -72.61843 13396 ft 219 kts 280°
2026-05-05 16:05 -42.78936 -72.63880 13398 ft 219 kts 280°
2026-05-05 16:05 -42.78671 -72.65920 13397 ft 218 kts 280°
2026-05-05 16:06 -42.78400 -72.67952 13397 ft 218 kts 280°
2026-05-05 16:06 -42.78136 -72.69985 13397 ft 218 kts 280°
2026-05-05 16:06 -42.77877 -72.71994 13401 ft 218 kts 280°
2026-05-05 16:06 -42.77613 -72.74030 13401 ft 218 kts 280°
2026-05-05 16:07 -42.77346 -72.76069 13397 ft 218 kts 280°
2026-05-05 16:07 -42.77078 -72.78105 13398 ft 218 kts 281°
2026-05-05 16:07 -42.76418 -72.79924 13402 ft 219 kts 316°
2026-05-05 16:07 -42.75020 -72.80652 13401 ft 223 kts 360°
2026-05-05 16:08 -42.73601 -72.79874 13400 ft 226 kts 39°
2026-05-05 16:08 -42.72335 -72.78643 13398 ft 225 kts 17°
2026-05-05 16:08 -42.70793 -72.78499 13399 ft 223 kts 356°
2026-05-05 16:08 -42.69286 -72.78888 13399 ft 221 kts 340°
2026-05-05 16:09 -42.67853 -72.79584 13402 ft 221 kts 338°
2026-05-05 16:09 -42.66537 -72.80628 13402 ft 220 kts 321°
2026-05-05 16:09 -42.65335 -72.81913 13404 ft 220 kts 320°
2026-05-05 16:09 -42.64005 -72.82920 13404 ft 221 kts 340°
2026-05-05 16:10 -42.62483 -72.83164 13390 ft 222 kts 352°
2026-05-05 16:10 -42.61004 -72.83808 13322 ft 223 kts 346°
2026-05-05 16:10 -42.59494 -72.84229 13370 ft 221 kts 341°
2026-05-05 16:10 -42.58047 -72.84925 13364 ft 220 kts 329°
2026-05-05 16:11 -42.56652 -72.85756 13395 ft 220 kts 346°
2026-05-05 16:11 -42.52084 -72.85132 13385 ft 222 kts 354°
2026-05-05 16:12 -42.50676 -72.85844 13397 ft 219 kts 333°
2026-05-05 16:12 -42.47798 -72.87272 13397 ft 221 kts 341°
2026-05-05 16:13 -42.43131 -72.89082 12722 ft 239 kts 343°
2026-05-05 16:13 -42.41522 -72.89687 12497 ft 241 kts 343°
2026-05-05 16:13 -42.39898 -72.90298 12270 ft 242 kts 343°
2026-05-05 16:14 -42.36639 -72.91524 11818 ft 243 kts 343°
2026-05-05 16:14 -42.33385 -72.92750 11366 ft 242 kts 343°
2026-05-05 16:15 -42.30160 -72.93967 10918 ft 242 kts 343°
2026-05-05 16:15 -42.26927 -72.95190 10469 ft 241 kts 343°
2026-05-05 16:16 -42.23701 -72.96412 10017 ft 240 kts 343°
2026-05-05 16:16 -42.20537 -72.97606 9564 ft 233 kts 343°
2026-05-05 16:17 -42.17461 -72.98679 9357 ft 222 kts 345°
2026-05-05 16:17 -42.15983 -72.99181 9327 ft 216 kts 345°
2026-05-05 16:18 -42.13088 -72.99998 9306 ft 209 kts 347°
2026-05-05 16:18 -42.11666 -73.00371 9303 ft 207 kts 347°
2026-05-05 16:18 -42.08850 -73.01093 9302 ft 205 kts 347°
2026-05-05 16:19 -42.07451 -73.01449 9302 ft 204 kts 347°
2026-05-05 16:19 -42.06055 -73.01802 9302 ft 204 kts 347°
2026-05-05 16:19 -42.03283 -73.02501 9301 ft 203 kts 347°
2026-05-05 16:20 -42.00503 -73.03200 9301 ft 203 kts 347°
2026-05-05 16:20 -41.98142 -73.03465 9299 ft 204 kts 360°
2026-05-05 16:21 -41.95315 -73.03250 9299 ft 204 kts
2026-05-05 16:22 -41.91053 -73.02797 9300 ft 205 kts
2026-05-05 16:22 -41.88253 -73.02049 9302 ft 206 kts 11°
2026-05-05 16:23 -41.85482 -73.01183 9321 ft 206 kts 11°
2026-05-05 16:23 -41.84071 -73.00803 9311 ft 207 kts
2026-05-05 16:23 -41.81186 -73.00883 9315 ft 208 kts 353°
2026-05-05 16:24 -41.79743 -73.01075 9288 ft 210 kts 352°
2026-05-05 16:24 -41.78277 -73.01293 9289 ft 214 kts 352°
2026-05-05 16:24 -41.75296 -73.01755 9296 ft 217 kts 352°
2026-05-05 16:25 -41.73798 -73.01991 9298 ft 218 kts 352°
2026-05-05 16:25 -41.70778 -73.02468 9299 ft 219 kts 352°
2026-05-05 16:25 -41.69268 -73.02707 9299 ft 219 kts 352°
2026-05-05 16:26 -41.66255 -73.03187 9299 ft 219 kts 352°
2026-05-05 16:26 -41.63222 -73.03671 9299 ft 219 kts 352°
2026-05-05 16:27 -41.61704 -73.03914 9299 ft 219 kts 352°
2026-05-05 16:27 -41.60186 -73.04157 9299 ft 219 kts 352°
2026-05-05 16:27 -41.58691 -73.04397 9300 ft 219 kts 352°
2026-05-05 16:27 -41.57172 -73.04642 9300 ft 219 kts 352°
2026-05-05 16:28 -41.55655 -73.04885 9301 ft 219 kts 352°
2026-05-05 16:28 -41.54136 -73.05132 9312 ft 220 kts 351°
2026-05-05 16:28 -41.52613 -73.05378 9315 ft 221 kts 352°
2026-05-05 16:28 -41.51083 -73.05623 9295 ft 222 kts 352°
2026-05-05 16:29 -41.49550 -73.05677 9291 ft 223 kts 13°
2026-05-05 16:29 -41.48311 -73.04487 9299 ft 226 kts 56°
2026-05-05 16:29 -41.47769 -73.02525 9301 ft 226 kts 74°
2026-05-05 16:29 -41.47394 -73.00485 9310 ft 227 kts 77°
2026-05-05 16:30 -41.46975 -72.98452 9303 ft 227 kts 70°
2026-05-05 16:30 -41.46416 -72.96481 9298 ft 227 kts 68°
2026-05-05 16:30 -41.45819 -72.94530 9300 ft 227 kts 67°
2026-05-05 16:30 -41.45209 -72.92584 9301 ft 227 kts 67°
2026-05-05 16:31 -41.44594 -72.90642 9299 ft 228 kts 66°
2026-05-05 16:31 -41.43974 -72.88699 9293 ft 228 kts 66°
2026-05-05 16:31 -41.43360 -72.86779 9304 ft 228 kts 66°
2026-05-05 16:31 -41.42737 -72.84830 9302 ft 229 kts 66°
2026-05-05 16:32 -41.42112 -72.82884 9301 ft 228 kts 66°
2026-05-05 16:32 -41.41488 -72.80937 9298 ft 228 kts 66°
2026-05-05 16:32 -41.40864 -72.78993 9305 ft 228 kts 65°
2026-05-05 16:32 -41.40240 -72.77053 9294 ft 228 kts 66°
2026-05-05 16:33 -41.39614 -72.75115 9293 ft 227 kts 66°
2026-05-05 16:33 -41.38991 -72.73186 9299 ft 226 kts 66°
2026-05-05 16:33 -41.38368 -72.71257 9299 ft 226 kts 66°
2026-05-05 16:33 -41.37749 -72.69348 9431 ft 221 kts 66°
2026-05-05 16:34 -41.37147 -72.67489 9593 ft 217 kts 66°
2026-05-05 16:34 -41.36551 -72.65652 9738 ft 215 kts 66°
2026-05-05 16:34 -41.35966 -72.63854 9878 ft 213 kts 66°
2026-05-05 16:34 -41.35380 -72.62045 10030 ft 212 kts 67°
2026-05-05 16:35 -41.34833 -72.60219 10190 ft 212 kts 70°
2026-05-05 16:35 -41.34340 -72.58359 10318 ft 215 kts 72°
2026-05-05 16:35 -41.33874 -72.56451 10347 ft 218 kts 73°
2026-05-05 16:35 -41.33429 -72.54519 10465 ft 218 kts 73°
2026-05-05 16:36 -41.32831 -72.52655 10410 ft 222 kts 49°
2026-05-05 16:36 -41.31511 -72.51680 10412 ft 221 kts
2026-05-05 16:36 -41.30006 -72.51429 10405 ft 221 kts
2026-05-05 16:36 -41.28456 -72.51272 10403 ft 221 kts
2026-05-05 16:37 -41.26944 -72.51153 10407 ft 221 kts
2026-05-05 16:37 -41.25405 -72.51047 10418 ft 222 kts
2026-05-05 16:37 -41.23861 -72.50947 10405 ft 223 kts
2026-05-05 16:37 -41.22311 -72.50849 10468 ft 219 kts
2026-05-05 16:38 -41.20876 -72.50514 10869 ft 205 kts 26°
2026-05-05 16:38 -41.19714 -72.49517 11265 ft 194 kts 32°
2026-05-05 16:38 -41.18625 -72.48512 11665 ft 186 kts 33°
2026-05-05 16:38 -41.17591 -72.47531 12078 ft 180 kts 34°
2026-05-05 16:39 -41.16584 -72.46581 12478 ft 175 kts 29°
2026-05-05 16:39 -41.15447 -72.46407 12883 ft 164 kts 335°
2026-05-05 16:39 -41.14690 -72.47441 13286 ft 157 kts 300°
2026-05-05 16:39 -41.14149 -72.48689 13681 ft 155 kts 297°
2026-05-05 16:40 -41.13651 -72.49954 14058 ft 156 kts 295°
2026-05-05 16:40 -41.13154 -72.51293 14241 ft 169 kts 294°
2026-05-05 16:40 -41.12622 -72.52756 14322 ft 183 kts 294°
2026-05-05 16:40 -41.12062 -72.54316 14367 ft 195 kts 294°
2026-05-05 16:41 -41.11467 -72.55991 14384 ft 205 kts 294°
2026-05-05 16:41 -41.10851 -72.57735 14390 ft 212 kts 294°
2026-05-05 16:41 -41.10221 -72.59529 14395 ft 217 kts 294°
2026-05-05 16:41 -41.09583 -72.61358 14397 ft 220 kts 293°
2026-05-05 16:42 -41.09155 -72.63304 14403 ft 221 kts 281°
2026-05-05 16:42 -41.08904 -72.65323 14394 ft 223 kts 273°
2026-05-05 16:42 -41.08898 -72.67380 14394 ft 223 kts 268°
2026-05-05 16:42 -41.08966 -72.69413 14395 ft 223 kts 267°
2026-05-05 16:43 -41.09060 -72.71469 14398 ft 225 kts 266°
2026-05-05 16:43 -41.08941 -72.73546 14398 ft 231 kts 292°
2026-05-05 16:43 -41.07855 -72.75090 14399 ft 237 kts 332°
2026-05-05 16:43 -41.06224 -72.75332 14399 ft 244 kts 12°
2026-05-05 16:44 -41.04762 -72.74193 14402 ft 248 kts 40°
2026-05-05 16:44 -41.03820 -72.72302 14400 ft 251 kts 70°
2026-05-05 16:44 -41.03318 -72.70085 14400 ft 252 kts 75°
2026-05-05 16:44 -41.02886 -72.67836 14400 ft 252 kts 76°
2026-05-05 16:45 -41.02618 -72.65546 14400 ft 252 kts 91°
2026-05-05 16:45 -41.02424 -72.63256 14400 ft 253 kts 66°
2026-05-05 16:45 -41.01284 -72.61548 14398 ft 251 kts 28°
2026-05-05 16:45 -40.99680 -72.60668 14402 ft 249 kts 18°
2026-05-05 16:46 -40.98031 -72.59945 14402 ft 250 kts 16°
2026-05-05 16:46 -40.96368 -72.59265 14400 ft 250 kts 15°
2026-05-05 16:46 -40.94680 -72.58730 14404 ft 249 kts
2026-05-05 16:46 -40.92950 -72.58575 14396 ft 249 kts
2026-05-05 16:47 -40.91218 -72.58513 14397 ft 249 kts 360°
2026-05-05 16:47 -40.89489 -72.58484 14400 ft 248 kts 359°
2026-05-05 16:47 -40.87782 -72.58469 14399 ft 248 kts 359°
2026-05-05 16:47 -40.86051 -72.58457 14404 ft 249 kts 359°
2026-05-05 16:48 -40.84320 -72.58451 14404 ft 249 kts 359°
2026-05-05 16:48 -40.82584 -72.58444 14403 ft 249 kts 359°
2026-05-05 16:48 -40.80848 -72.58441 14393 ft 249 kts 359°
2026-05-05 16:48 -40.79119 -72.58439 14395 ft 248 kts 359°
2026-05-05 16:49 -40.77395 -72.58438 14397 ft 248 kts 359°
2026-05-05 16:49 -40.75671 -72.58437 14403 ft 248 kts 359°
2026-05-05 16:49 -40.73945 -72.58437 14403 ft 248 kts 358°
2026-05-05 16:49 -40.72217 -72.58437 14404 ft 249 kts 359°
2026-05-05 16:50 -40.70483 -72.58437 14400 ft 249 kts 359°
2026-05-05 16:50 -40.68750 -72.58438 14403 ft 249 kts 359°
2026-05-05 16:50 -40.67039 -72.58440 14395 ft 249 kts 359°
2026-05-05 16:50 -40.65309 -72.58441 14395 ft 248 kts 359°
2026-05-05 16:51 -40.63583 -72.58442 14406 ft 248 kts 358°
2026-05-05 16:51 -40.61855 -72.58445 14399 ft 249 kts 358°
2026-05-05 16:51 -40.60125 -72.58447 14400 ft 248 kts 358°
2026-05-05 16:51 -40.58392 -72.58451 14401 ft 249 kts 358°
2026-05-05 16:52 -40.56659 -72.58455 14400 ft 249 kts 359°
2026-05-05 16:52 -40.54928 -72.58460 14400 ft 249 kts 358°
2026-05-05 16:52 -40.53198 -72.58466 14402 ft 249 kts 358°
2026-05-05 16:52 -40.51464 -72.58472 14401 ft 249 kts 358°
2026-05-05 16:53 -40.49727 -72.58476 14398 ft 249 kts 358°
2026-05-05 16:53 -40.47995 -72.58482 14396 ft 249 kts 358°
2026-05-05 16:53 -40.46257 -72.58486 14400 ft 249 kts 358°
2026-05-05 16:53 -40.44526 -72.58493 14403 ft 249 kts 358°
2026-05-05 16:54 -40.42795 -72.58501 14401 ft 249 kts 358°
2026-05-05 16:54 -40.41081 -72.58508 14397 ft 249 kts 358°
2026-05-05 16:54 -40.39348 -72.58517 14399 ft 249 kts 358°
2026-05-05 16:54 -40.37617 -72.58525 14398 ft 249 kts 358°
2026-05-05 16:55 -40.35884 -72.58534 14399 ft 249 kts 358°
2026-05-05 16:55 -40.34153 -72.58543 14399 ft 249 kts 358°
2026-05-05 16:55 -40.32422 -72.58551 14399 ft 249 kts 358°
2026-05-05 16:55 -40.30691 -72.58559 14402 ft 249 kts 358°
2026-05-05 16:56 -40.28959 -72.58570 14401 ft 249 kts 358°
2026-05-05 16:56 -40.27230 -72.58581 14400 ft 249 kts 358°
2026-05-05 16:56 -40.25498 -72.58592 14403 ft 249 kts 358°
2026-05-05 16:56 -40.23766 -72.58603 14401 ft 249 kts 358°
2026-05-05 16:57 -40.22054 -72.58615 14400 ft 249 kts 358°
2026-05-05 16:57 -40.20321 -72.58627 14398 ft 249 kts 358°
2026-05-05 16:57 -40.18587 -72.58640 14402 ft 249 kts 358°
2026-05-05 16:57 -40.16852 -72.58653 14404 ft 249 kts 358°
2026-05-05 16:58 -40.15117 -72.58666 14395 ft 249 kts 358°
2026-05-05 16:58 -40.13385 -72.58679 14397 ft 249 kts 358°
2026-05-05 16:58 -40.11655 -72.58692 14399 ft 249 kts 358°
2026-05-05 16:58 -40.09921 -72.58706 14400 ft 249 kts 358°
2026-05-05 16:59 -40.08190 -72.58721 14399 ft 249 kts 358°
2026-05-05 16:59 -40.06459 -72.58735 14401 ft 249 kts 358°
2026-05-05 16:59 -40.04727 -72.58750 14398 ft 249 kts 358°
2026-05-05 16:59 -40.02997 -72.58765 14400 ft 249 kts 358°
2026-05-05 17:00 -40.01265 -72.58780 14397 ft 248 kts 358°
2026-05-05 17:00 -39.99537 -72.58796 14406 ft 249 kts 358°
2026-05-05 17:00 -39.97805 -72.58813 14399 ft 249 kts 358°
2026-05-05 17:00 -39.96070 -72.58831 14401 ft 249 kts 358°
2026-05-05 17:01 -39.94354 -72.58849 14401 ft 250 kts 358°
2026-05-05 17:01 -39.92602 -72.58867 14402 ft 252 kts 359°
2026-05-05 17:01 -39.90861 -72.58617 14401 ft 254 kts 12°
2026-05-05 17:01 -39.89158 -72.57987 14402 ft 255 kts 15°
2026-05-05 17:02 -39.87456 -72.57325 14399 ft 255 kts 15°
2026-05-05 17:02 -39.85749 -72.56666 14400 ft 256 kts 15°
2026-05-05 17:02 -39.84042 -72.56007 14402 ft 256 kts 15°
2026-05-05 17:02 -39.82337 -72.55351 14407 ft 256 kts 15°
2026-05-05 17:03 -39.80627 -72.54694 14401 ft 256 kts 15°
2026-05-05 17:03 -39.78917 -72.54038 14404 ft 256 kts 15°
2026-05-05 17:03 -39.77205 -72.53383 14398 ft 256 kts 15°
2026-05-05 17:03 -39.75494 -72.52729 14399 ft 256 kts 15°
2026-05-05 17:04 -39.73781 -72.52076 14396 ft 256 kts 15°
2026-05-05 17:04 -39.72072 -72.51425 14399 ft 256 kts 15°
2026-05-05 17:04 -39.70386 -72.50784 14396 ft 256 kts 15°
2026-05-05 17:04 -39.68675 -72.50135 14407 ft 256 kts 15°
2026-05-05 17:05 -39.66962 -72.49487 14402 ft 256 kts 15°
2026-05-05 17:05 -39.65251 -72.48839 14404 ft 256 kts 15°
2026-05-05 17:05 -39.64094 -72.48402 14402 ft 257 kts 15°
2026-05-05 17:05 -39.62398 -72.47760 14399 ft 257 kts 15°
2026-05-05 17:06 -39.60681 -72.47112 14401 ft 257 kts 15°
2026-05-05 17:06 -39.58965 -72.46467 14398 ft 257 kts 15°
2026-05-05 17:06 -39.57246 -72.45822 14400 ft 256 kts 15°
2026-05-05 17:06 -39.55535 -72.45180 14403 ft 256 kts 15°
2026-05-05 17:07 -39.53826 -72.44538 14397 ft 256 kts 15°
2026-05-05 17:07 -39.52103 -72.43892 14402 ft 256 kts 15°
2026-05-05 17:07 -39.50390 -72.43251 14401 ft 257 kts 15°
2026-05-05 17:07 -39.48672 -72.42609 14394 ft 257 kts 15°
2026-05-05 17:08 -39.46956 -72.41968 14397 ft 256 kts 15°
2026-05-05 17:08 -39.45243 -72.41329 14398 ft 256 kts 14°
2026-05-05 17:08 -39.43532 -72.40691 14407 ft 256 kts 14°
2026-05-05 17:08 -39.41816 -72.40054 14404 ft 257 kts 14°
2026-05-05 17:09 -39.40102 -72.39388 14389 ft 257 kts 20°
2026-05-05 17:09 -39.38751 -72.37917 14398 ft 260 kts 58°
2026-05-05 17:09 -39.38344 -72.35708 14399 ft 260 kts 94°
2026-05-05 17:09 -39.38607 -72.33395 14406 ft 260 kts 101°
2026-05-05 17:10 -39.38966 -72.31098 14399 ft 260 kts 102°
2026-05-05 17:10 -39.39359 -72.28811 14404 ft 261 kts 103°
2026-05-05 17:10 -39.39764 -72.26524 14400 ft 261 kts 103°
2026-05-05 17:10 -39.40174 -72.24242 14404 ft 261 kts 103°
2026-05-05 17:11 -39.40589 -72.21950 14401 ft 261 kts 103°
2026-05-05 17:11 -39.41005 -72.19659 14396 ft 261 kts 103°
2026-05-05 17:11 -39.41415 -72.17398 14398 ft 261 kts 103°
2026-05-05 17:11 -39.41829 -72.15110 14397 ft 261 kts 103°
2026-05-05 17:12 -39.42243 -72.12826 14400 ft 260 kts 103°
2026-05-05 17:12 -39.42658 -72.10535 14398 ft 261 kts 103°
2026-05-05 17:12 -39.43070 -72.08247 14399 ft 261 kts 103°
2026-05-05 17:12 -39.43477 -72.05994 14407 ft 261 kts 103°
2026-05-05 17:13 -39.43889 -72.03706 14398 ft 261 kts 103°
2026-05-05 17:13 -39.44302 -72.01419 14403 ft 261 kts 103°
2026-05-05 17:13 -39.44715 -71.99125 14406 ft 263 kts 105°
2026-05-05 17:13 -39.44903 -71.96770 14280 ft 267 kts 84°
2026-05-05 17:14 -39.44262 -71.94477 13961 ft 276 kts 58°
2026-05-05 17:14 -39.42969 -71.92748 14123 ft 263 kts 34°
2026-05-05 17:14 -39.41410 -71.91601 14270 ft 253 kts 29°
2026-05-05 17:14 -39.39908 -71.90443 13926 ft 252 kts 27°
2026-05-05 17:15 -39.38284 -71.89563 13361 ft 257 kts 21°
2026-05-05 17:15 -39.36633 -71.88609 12714 ft 256 kts 27°
2026-05-05 17:15 -39.35078 -71.87572 12187 ft 247 kts 21°
2026-05-05 17:15 -39.33431 -71.86993 11594 ft 243 kts 16°
2026-05-05 17:16 -39.31829 -71.86593 11394 ft 225 kts 351°
2026-05-05 17:16 -39.30666 -71.87748 10660 ft 231 kts 302°
2026-05-05 17:16 -39.29814 -71.89681 9520 ft 257 kts 301°
2026-05-05 17:16 -39.28895 -71.91441 9740 ft 216 kts 309°
2026-05-05 17:17 -39.27919 -71.92897 9044 ft 221 kts 312°
2026-05-05 17:17 -39.26828 -71.94453 8050 ft 238 kts 310°
2026-05-05 17:17 -39.25852 -71.96047 7883 ft 215 kts 306°
2026-05-05 17:17 -39.24956 -71.97560 7061 ft 217 kts 313°
2026-05-05 17:18 -39.24012 -71.99097 6265 ft 216 kts 301°
2026-05-05 17:18 -39.23393 -72.00839 5396 ft 216 kts 287°
2026-05-05 17:18 -39.23005 -72.02690 4603 ft 214 kts 290°
2026-05-05 17:18 -39.22256 -72.04316 3759 ft 213 kts 306°
2026-05-05 17:19 -39.21595 -72.05976 3200 ft 199 kts 275°
2026-05-05 17:19 -39.22207 -72.07379 2870 ft 185 kts 213°
2026-05-05 17:19 -39.23435 -72.07734 2497 ft 173 kts 167°
2026-05-05 17:19 -39.24204 -72.06838 2602 ft 146 kts 121°
2026-05-05 17:20 -39.24710 -72.05699 2702 ft 144 kts 123°
2026-05-05 17:20 -39.25229 -72.04615 2829 ft 141 kts 126°
2026-05-05 17:20 -39.25789 -72.03556 2904 ft 144 kts 125°
2026-05-05 17:20 -39.26303 -72.02427 2943 ft 148 kts 118°
2026-05-05 17:21 -39.26763 -72.01256 2926 ft 144 kts 122°
2026-05-05 17:21 -39.27285 -72.00165 2697 ft 146 kts 123°
2026-05-05 17:21 -39.27734 -71.98977 2513 ft 149 kts 114°
2026-05-05 17:22 -39.28431 -71.96454 1947 ft 146 kts 118°
2026-05-05 17:22 -39.28670 -71.95008 1476 ft 184 kts 94°
2026-05-05 17:22 -39.28915 -71.93392 1056 ft 180 kts 113°
2026-05-05 17:22 -39.29385 -71.92013 1267 ft 160 kts 116°
2026-05-05 17:23 -39.29710 -71.90701 1870 ft 149 kts 83°
2026-05-05 17:23 -39.28952 -71.89873 2282 ft 145 kts
2026-05-05 17:23 -39.28105 -71.90303 2699 ft 144 kts 307°
2026-05-05 17:23 -39.27529 -71.91483 2708 ft 168 kts 286°
2026-05-05 17:24 -39.27381 -71.93029 2975 ft 177 kts 276°
2026-05-05 17:24 -39.26958 -71.94316 3591 ft 148 kts 326°
2026-05-05 17:24 -39.25973 -71.94682 3551 ft 153 kts 329°
2026-05-05 17:24 -39.25672 -71.95811 3376 ft 134 kts 238°
2026-05-05 17:25 -39.26450 -71.96382 2814 ft 141 kts 205°
2026-05-05 17:25 -39.27080 -71.96675 2559 ft 138 kts 188°
2026-05-05 17:25 -39.27871 -71.95607 1933 ft 141 kts 120°
2026-05-05 17:25 -39.28485 -71.94651 1454 ft 137 kts 133°
2026-05-05 17:26 -39.28880 -71.93620 1132 ft 123 kts 106°
2026-05-05 17:26 -39.29066 -71.92575 876 ft 112 kts 104°
2026-05-05 17:26 -39.29220 -71.91693 882 ft 83 kts 101°
2026-05-05 17:26 -39.29290 -71.91209 910 ft 42 kts 104°
2026-05-05 17:27 -39.29321 -71.91023 914 ft 0 kts 101°
2026-05-05 17:32 -39.29320 -71.91025 914 ft 2 kts 101°
2026-05-05 17:32 -39.29320 -71.91031 914 ft 0 kts 99°
2026-05-05 17:34 -39.29320 -71.91030 914 ft 0 kts 100°